Regional Weather Roundup
Issued by NWS Newport/Morehead, NC

Current Version | Previous Version | Text Only | Print | Product List | Glossary On
Versions: 1 2 3 4 5 6 7 8 9 10 11 12 13 14 15 16 17 18 19 20 21 22 23 24 25 26 27 28 29 30 31 32 33 34 35 36 37 38 39 40 41 42 43 44 45 46 47 48 49 50
000
ASUS42 KMHX 210810
RWRMHX
WEATHER ROUNDUP FOR EASTERN NORTH CAROLINA
NATIONAL WEATHER SERVICE NEWPORT/MOREHEAD CITY NC
400 AM EDT TUE OCT 21 2014

NOTE: "FAIR" INDICATES FEW OR NO CLOUDS BELOW 12,000 FEET
WITH NO SIGNIFICANT WEATHER AND/OR OBSTRUCTIONS TO VISIBILITY

NCZ015>017-031-032-045>047-102-103-210900-
NORTH COAST

CITY           SKY/WX    TMP DP  RH WIND       PRES   REMARKS
EDENTON        PTCLDY    55  54  97 CALM      29.92F
ELIZABETH CITY PTCLDY    55  54  96 SW3       29.93F
KITTY HAWK     DRIZZLE   64  61  92 CALM      29.92F
MANTEO         CLOUDY    64  61  91 S8        29.93F

$$

NCZ045>047-081-094-103-104-210900-
CENTRAL COAST

CITY           SKY/WX    TMP DP  RH WIND       PRES   REMARKS
FRISCO         LGT RAIN  65  63  93 CALM      29.93F
SWANQUARTER      N/A     66 N/A N/A SW5       29.88S

$$

NCZ095-097-098-100-101-210900-
SOUTHERN COAST

CITY           SKY/WX    TMP DP  RH WIND       PRES   REMARKS
BEAUFORT       MOCLDY    64  63  96 NW5       29.93F
CEDAR ISLAND     N/A     64 N/A N/A E3        29.97S
JACKSONVILLE   CLEAR     52  51  97 CALM      29.93F
PINEY ISLAND   PTSUNNY   66  61  84 CALM      29.92F
WILMINGTON     CLEAR     55  54  96 CALM      29.93F


$$

NCZ011>013-027>030-043-044-078>080-089-090>093-098-210900-
COASTAL PLAIN

CITY           SKY/WX    TMP DP  RH WIND       PRES   REMARKS
AHOSKIE        CLOUDY    55  54  95 CALM      29.92F
CLINTON        MOCLDY    56  56 100 CALM      29.94F
ELIZABETHTOWN  MOCLDY    57  56  97 CALM      29.93F
GOLDSBORO      MOCLDY    57  56  98 CALM      29.91F
GREENVILLE     MOCLDY    55  54  94 CALM      29.94F
HAVELOCK       PTCLDY    57  55  93 W3        29.94F
KENANSVILLE    PTCLDY    52  51  97 CALM      29.93F
KINSTON        MOCLDY    54  53  97 CALM      29.93F
NEW BERN       CLEAR     55  52  89 CALM      29.94F
RICHLANDS      CLEAR     50  46  87 CALM      29.94F
ROCKY MOUNT    CLOUDY    57  55  93 S3        29.92F
WASHINGTON     PTCLDY    52  51  97 CALM      29.93F
WHITEVILLE     PTCLDY    56  54  93 CALM      29.93F

$$

AMZ130-135-150-152-154-156-158-170-250-252-270-ANZ085-086-088-633-658-670-210900-
MARINE OBSERVATIONS

STATION/POSITION TIME  TEMP    WIND        PRES    WAVE   SWELL
                       AIR SEA DIR/SP/G            HT/PER HT/PER
                 (UTC) (F)     (DEG/KT/KT) (MB)    (FT/S) (FT/S)
CHESAPEAKE LIGHT 0700   66     230/ 17/ 18 1013.9
64 E VA BEACH    0800   69 69  280/  8/ 10 1012.6    3/ 5   3/ 5
DUCK             0800   64 69  200/  4/  4 1012.5
2 E DUCK         0800                        N/A     2/11   2/11
10 NE DUCK       0800      71                N/A     2/10   2/11
OREGON INLET     0800   65 67  170/ 13/ 16 1013.3
13E OREGON INLT  0800      73                N/A     4/ 5   2/11
HATTERAS CG      0800   65 72  310/  1/  3 1014.0
DIAMOND BUOY     0800   67     300/ 12/ 14 1013.5    4/ 4   2/ 8
17 S OCRACOKE    NOT AVBL
CAPE LOOKOUT     0700   69     200/  3/  3 1013.4
BEAUFORT LAB     0800   65 69  330/  5/  7 1012.9
30 SE NEW RIVER  0800   72 76  290/ 16/ 19 1012.9    3/ 4   2/ 9
5 SE WRIGHTSVLE  0800   66 73  280/ 12/ 14   N/A
225 S CAPE HAT   0656   73 80  180/ 14/ 16 1014.7    4/ 9   3/ 9
41 SE CHARLESTON 0800   74 79   70/  4/  4 1013.2    2/ 9   2/ 9

$$



USA.gov is the U.S. government's official web portal to all federal, state and local government web resources and services.